Regional Weather Roundup
Issued by NWS New Orleans/Baton Rouge, LA

Home | Current Version | Previous Version | Text Only | Print | Product List | Glossary On
Versions: 1 2 3 4 5 6 7 8 9 10 11 12 13 14 15 16 17 18 19 20 21 22 23 24 25 26 27 28 29 30 31 32 33 34 35 36 37 38 39 40 41 42 43 44 45 46 47 48 49 50
248
ASUS44 KLIX 250110
RWRLIX
NEW ORLEANS REGIONAL WEATHER ROUNDUP
NATIONAL WEATHER SERVICE NEW ORLEANS LA
700 PM CST SAT JAN 24 2015

NOTE: "FAIR" INDICATES FEW OR NO CLOUDS BELOW 12,000 FEET WITH NO
      SIGNIFICANT WEATHER AND/OR OBSTRUCTIONS TO VISIBILITY.
      SKY/WX - SKY CONDITION AND SIGNIFICANT WEATHER.
      TMP - AIR TEMPERATURE.     DP    - DEWPOINT TEMPERATURE.
      RH  - RELATIVE HUMIDITY.   PRES  - PRESSURE.
      HI  - HEAT INDEX.          WCI   - WIND CHILL INDEX.

*  THESE STATIONS ARE NOT NWS OR FAA STATIONS AND ARE NOT UNDER
   NWS QUALITY CONTROL.

LAZ038-040-048-061>063-065>067-069-250200-
SOUTHEAST LOUISIANA

CITY           SKY/WX    TMP DP  RH WIND       PRES   REMARKS
N.O. AUDUBON   NOT AVBL
N.O. INTL ARPT PTCLDY    50  32  50 SW7       30.09F
N.O. LAKEFRONT CLEAR     53  36  52 SW7       30.10F
N.O. DOWNTOWN*   N/A     54  30  40 S3        30.10F
SLIDELL        CLEAR     43  37  79 CALM      30.09R
BATON ROUGE    CLEAR     47  33  58 SW6       30.09R
BOOTHVILLE     CLEAR     49  39  68 W6        30.12R
BELLE CHASSE   PTCLDY    42  33  70 CALM      30.10S
BOGALUSA*        N/A     41  36  81 CALM      30.09R
GALLIANO*      CLEAR     50  42  73 MISG      30.11F
NEW ROADS*       N/A     50  36  57 S5        30.09R
GONZALES*        N/A     48  35  61 SW3       30.09F
HAMMOND*       CLEAR     46  34  61 CALM      30.10S
HOUMA*           N/A     46  38  74 SW5       30.11F
PORT FOURCHON* CLEAR     52  41  66 W10       30.16R

$$

MSZ070-080>082-250200-
SOUTHERN MISSISSIPPI

CITY           SKY/WX    TMP DP  RH WIND       PRES   REMARKS
MCCOMB         PTCLDY    43  35  73 SW3       30.06S
GULFPORT       CLEAR     47  36  65 W5        30.08R
BILOXI         CLEAR     46  41  84 W8        30.08R
PASCAGOULA     CLEAR     44  39  82 W3        30.08S
STENNIS ARPT*  CLEAR     43  36  75 CALM      30.09S

$$

COASTAL OBSERVATIONS
LAKE AND NEARSHORE STATIONS

STATION/POSITION TIME  TEMP    WIND        PRES    WAVE
                       AIR SEA DIR/SP/G            HT/PER
                 (UTC) (F)     (DEG/KT/KT) (MB)    (FT/S)
PASCAGOULA       0100   53     250/ 10/ 13 1018.0
WAVELAND YACHT   0100   50     260/  6/ 10 1017.9
GRAND ISLE       0100   52 55  260/ 11/ 13 1020.1
SOUTHWEST PASS   0100   53 46  310/  6/ 12 1020.2
NEW CANAL        0100   53 52  220/  5/  6 1019.4
SHELL BEACH      0100   51 54  230/  4/  4 1019.0

OFFSHORE STATIONS

STATION/POSITION TIME  TEMP    WIND        PRES    WAVE
                       AIR SEA DIR/SP/G            HT/PER
                 (UTC) (F)     (DEG/KT/KT) (MB)    (FT/S)
64 S DAUPHIN ISL 0036   54 71  300/ 14/ 17 1019.5    4/ 8

$$




USA.gov is the U.S. government's official web portal to all federal, state and local government web resources and services.